This demonstration page uses our WeatherBlox Daily Observations layout. Learn more.

Left ArrowRight Arrow

Hourly Observations for June 24, 2021

Temp ( °F °C ) Dew Point ( °F °C ) Humidity (%) Winds ( mph kmh ) Pressure ( in mb ) Visibility ( mi km ) Precip ( " mm )
12:59 am 00:59 Clear 61 16.1 51 10.6 70 70 E 3 6 30.30 1026 10 16 0.00 0.00
1:59 am 01:59 Clear 60 15.6 51 10.6 72 72 Calm 30.30 1026 10 16 0.00 0.00
2:59 am 02:59 Clear 59 15 53 11.7 81 81 Calm 30.29 1026 10 16 0.00 0.00
3:59 am 03:59 Clear 58 14.4 52 11.1 81 81 Calm 30.29 1026 10 16 0.00 0.00
4:59 am 04:59 Mostly Clear 65 18.3 52 11.1 63 63 ENE 8 13 30.29 1026 10 16 0.00 0.00
5:59 am 05:59 Mostly Sunny 66 18.9 52 11.1 61 61 ENE 9 15 30.30 1026 10 16 0.00 0.00
6:59 am 06:59 Sunny 68 20 53 11.7 59 59 NE 10 17 30.31 1026 10 16 0.00 0.00
7:59 am 07:59 Mostly Sunny 70 21.1 53 11.7 55 55 NNE 13 20 30.31 1027 10 16 0.00 0.00
8:59 am 08:59 Mostly Sunny 71 21.7 53 11.7 53 53 NE 16 26 30.33 1027 10 16 0.00 0.00
9:59 am 09:59 Partly Cloudy 71 21.7 55 12.8 57 57 ENE 13 20 30.34 1027 10 16 0.00 0.00
10:59 am 10:59 Mostly Cloudy 73 22.8 54 12.2 51 51 ENE 14 22 30.34 1028 10 16 0.00 0.00
11:59 am 11:59 Mostly Cloudy 72 22.2 56 13.3 57 57 ENE 14 22 30.35 1028 10 16 0.00 0.00
12:59 pm 12:59 Mostly Cloudy 73 22.8 55 12.8 53 53 NE 15 24 30.35 1028 10 16 0.00 0.00
1:59 pm 13:59 Mostly Cloudy 74 23.3 55 12.8 52 52 NE 17 28 30.34 1027 10 16 0.00 0.00
2:59 pm 14:59 Partly Cloudy 74 23.3 54 12.2 50 50 ENE 15 24 30.31 1026 10 16 0.00 0.00
3:59 pm 15:59 Partly Cloudy 73 22.8 57 13.9 57 57 ENE 13 20 30.29 1026 10 16 0.00 0.00
4:59 pm 16:59 Partly Cloudy 73 22.8 58 14.4 59 59 ENE 12 19 30.29 1026 10 16 0.00 0.00
5:59 pm 17:59 Mostly Sunny 72 22.2 58 14.4 61 61 ENE 10 17 30.28 1025 10 16 0.00 0.00
6:59 pm 18:59 Partly Cloudy 71 21.7 58 14.4 63 63 ENE 10 17 30.29 1026 10 16 0.00 0.00
7:59 pm 19:59 Partly Cloudy 70 21.1 58 14.4 66 66 E 8 13 30.30 1026 10 16 0.00 0.00
8:59 pm 20:59 Partly Cloudy 69 20.6 58 14.4 68 68 E 7 11 30.31 1026 10 16 0.00 0.00
9:59 pm 21:59 Partly Cloudy 69 20.6 59 15 70 70 ENE 8 13 30.31 1026 10 16 0.00 0.00
10:59 pm 22:59 Partly Cloudy 68 20 59 15 73 73 E 8 13 30.30 1026 10 16 0.00 0.00
11:59 pm 23:59 Clear 68 20 59 15 73 73 ENE 7 11 30.30 1026 10 16 0.00 0.00

Powered by AerisWeather